Volver al catálogo

COSMOS 1232

ActivoMilitarLEO
NORAD 12111·PAYLOAD·🇷🇺 Russia

Lanzado Dec 23, 1980 desde Plesetsk Cosmodrome

Loading…

Próximos Pases (próximas 24 horas)

TLE

ActualizadoSource: Space-Track

Época: Sep 14, 2026, 11:33 UTC

1 12111U 80102E   26257.48172755 -.00000021  00000-0 -25052-4 0  9991
2 12111  73.9905 262.9863 0033626 316.9329 115.9715 12.56333239 97013

Sigue COSMOS 1232 en tiempo real con AllMySat

Download on the App Store